Location: Innsbruck
(47.2657°N, 11.3914°E)
Time: 02:21:51
(UTC+02:00)

Envisat - Pass Details

Date: 10 February 2023
Orbit: 763 x 765 km, 98.2° (Epoch: 28 March)

Event Time Altitude Azimuth Distance (km) Brightness Sun altitude
Rises 04:00:30 0° 18° (NNE) 3,244 6.7 -35.4°
Reaches altitude 10° 04:02:54 10° 23° (NNE) 2,313 5.9 -35.0°
Enters shadow 04:05:39 31° 40° (NE) 1,339 4.6 -34.6°
